Volver al catálogo

METEOR 2-17 DEB

ActivoPO
NORAD 38286·DEBRIS·🇷🇺 Russia

Lanzado Jan 30, 1988 desde Plesetsk Cosmodrome

Loading…

Próximos Pases (próximas 24 horas)

TLE

ActualizadoSource: Space-Track

Época: Sep 14, 2026, 12:43 UTC

1 38286U 88005AP  26257.53010313  .00000304  00000-0  18258-3 0  9990
2 38286  82.5377 184.9005 0045902   7.2635 352.9190 14.03541553755121

Sigue METEOR 2-17 DEB en tiempo real con AllMySat

Download on the App Store